This is the latest recevied weather packets stored in our database for station/object N4AN. If no packets are shown the sender has not sent any weather packets the latest 1 day(s).
| Time | Temp. | Humidity | Pressure | Rain* | Wind** | Luminosity | Snow |
|---|---|---|---|---|---|---|---|
| 1777980629 | 23.89° C | 90% | 1008.4 hPa | 0 mm | 2.24 m/s, 166° | - | - |
| 1777980329 | 23.89° C | 90% | 1008.4 hPa | 0 mm | 2.68 m/s, 232° | - | - |
| 1777980028 | 23.89° C | 90% | 1008.3 hPa | 0 mm | 1.79 m/s, 213° | - | - |
| 1777979728 | 23.89° C | 90% | 1008.3 hPa | 0 mm | 2.24 m/s, 235° | - | - |
| 1777979428 | 23.89° C | 90% | 1008.3 hPa | 0 mm | 1.79 m/s, 188° | - | - |
| 1777979127 | 23.89° C | 90% | 1008.3 hPa | 0 mm | 1.79 m/s, 222° | - | - |
| 1777978827 | 23.89° C | 90% | 1008.2 hPa | 0 mm | 1.79 m/s, 1° | - | - |
| 1777978527 | 23.89° C | 90% | 1008.1 hPa | 0 mm | 0.45 m/s, 223° | - | - |
| 1777978227 | 23.89° C | 90% | 1008.2 hPa | 0 mm | 1.79 m/s, 213° | - | - |
| 1777977927 | 23.89° C | 90% | 1008.1 hPa | 0 mm | 1.34 m/s, 1° | - | - |
| 1777977625 | 23.89° C | 90% | 1008 hPa | 0 mm | 1.34 m/s, 165° | - | - |
| 1777977325 | 23.89° C | 90% | 1007.9 hPa | 0 mm | 2.24 m/s, 197° | - | - |
| 1777977024 | 23.89° C | 90% | 1008 hPa | 0 mm | 1.34 m/s, 257° | - | - |
| 1777976724 | 23.89° C | 89% | 1007.7 hPa | 0 mm | 1.34 m/s, 89° | - | - |
| 1777976424 | 23.89° C | 89% | 1007.6 hPa | 0 mm | 4.02 m/s, 265° | - | - |
| 1777976123 | 23.89° C | 89% | 1007.7 hPa | 0 mm | 1.79 m/s, 149° | - | - |
| 1777975823 | 23.89° C | 89% | 1007.7 hPa | 0 mm | 0.89 m/s, 344° | - | - |
| 1777975522 | 23.89° C | 89% | 1007.5 hPa | 0 mm | 2.24 m/s, 229° | - | - |
| 1777974619 | 23.89° C | 89% | 1007.2 hPa | 0 mm | 1.34 m/s, 245° | - | - |
| 1777974319 | 23.89° C | 89% | 1007.3 hPa | 0 mm | 1.79 m/s, 86° | - | - |
| 1777974018 | 23.89° C | 89% | 1007.3 hPa | 0 mm | 0.89 m/s, 83° | - | - |
| 1777973512 | 23.89° C | 89% | 1007.2 hPa | 0 mm | 1.79 m/s, 238° | - | - |
| 1777973212 | 23.33° C | 89% | 1007.3 hPa | 0 mm | 2.68 m/s, 6° | - | - |
| 1777972909 | 23.33° C | 89% | 1007.2 hPa | 0 mm | 1.34 m/s, 9° | - | - |
| 1777972608 | 23.89° C | 90% | 1007.2 hPa | 0 mm | 1.34 m/s, 1° | - | - |
* Rain latest hour (hover to see other rain measurements)
** Current wind speed in m/s (hover to see current wind gust speed)